Regional Weather Roundup
Issued by NWS Sterling, VA

Home | Current Version | Previous Version | Text Only | Print | Product List | Glossary On
Versions: 1 2 3 4 5 6 7 8 9 10 11 12 13 14 15 16 17 18 19 20 21 22 23 24 25 26 27 28
000
ASUS41 KLWX 220910
RWRLWX

REGIONAL WEATHER ROUNDUP
NATIONAL WEATHER SERVICE BALTIMORE MD/WASHINGTON DC
400 AM EST SUN JAN 22 2017

Note: "FAIR" indicates few or no clouds below 12,000 feet
with no significant weather and/or obstructions to visibility.
 TC=TEMPERATURE CELSIUS

 * =Non NWS site. Station does not report precipitation (e.g. rain,
    snow, etc.), thunder, or fog.

DCZ001-MDZ009-015-VAZ040>042-051-053>054-221000-
WASHINGTON METRO

CITY           SKY/WX    TMP DP  RH WIND       PRES   REMARKS
WASHINGTON NAT CLOUDY    47  47 100 NE6       29.71F FOG
DULLES         FOG       47  46  97 E5        29.70F VSB 1/8
ANDREWS AFB    FOG       45  45 100 NE3       29.70S VSB 3/4
QUANTICO       FOG       47  47 100 NE8       29.71F VSB 1
COLLEGE PARK*  CLOUDY    45  45 100 CALM      29.70F
LEESBURG*      FOG       48  48 100 NE5       29.70F VSB 1/2
GAITHERSBURG*  CLOUDY    45  43  93 E3        29.74F VSB 3/4

$$

MDZ006>007-011-014-221000-
BALTIMORE METRO

CITY           SKY/WX    TMP DP  RH WIND       PRES   REMARKS
BWI AIRPORT    FOG       45  45 100 NE7       29.71F VSB 1/4
MD SCIENCE CTR   N/A     47  44  90 MISG      29.72F
ANNAPOLIS      FOG       45  44  97 N6        29.71F VSB 1/2
FORT MEADE*    CLOUDY    45  43  93 CALM      29.73F VSB 3/4

$$

MDZ012-015-019>023-221000-
MARYLAND EASTERN SHORE

CITY           SKY/WX    TMP DP  RH WIND       PRES   REMARKS
OCEAN CITY     LGT RAIN  46  46 100 NE8       29.69F
SALISBURY      LGT RAIN  47  47 100 NE8       29.68F
BAY BRIDGE AP* DRZL/FOG  43  43 100 N9        29.71S VSB 1/2
CAMBRIDGE*     CLOUDY    45  45 100 NE6       29.68S
EASTON*        DRIZZLE   48  47  94 NE6       29.73F

$$

MDZ017>025-221000-
SOUTHERN MARYLAND

CITY           SKY/WX    TMP DP  RH WIND       PRES   REMARKS
PATUXENT RIVER CLOUDY    47  47 100 N8        29.68S FOG
ST INIGOES     LGT RAIN  48  47  96 N8        29.66F
LEONARDTOWN*   CLOUDY    45  45 100 N3        29.70S

$$

MDZ003>005-221000-
NORTH CENTRAL MARYLAND

CITY           SKY/WX    TMP DP  RH WIND       PRES   REMARKS
FREDERICK*     FOG       45  45 100 N3        29.73F VSB 3/4
HAGERSTOWN APT FOG       45  43  93 N7        29.70F VSB 1/4
WESTMINSTER*   FOG       43  43 100 NE3       29.70F VSB 1/4

$$

MDZ501>502-221000-
WESTERN MARYLAND

CITY           SKY/WX    TMP DP  RH WIND       PRES   REMARKS
OAKLAND*         N/A     45  43  93 CALM      29.70R
CUMBERLAND*    CLOUDY    43  43 100 SE3       29.75R

$$

VAZ025>031-221000-
SHENANDOAH VALLEY

CITY           SKY/WX    TMP DP  RH WIND       PRES   REMARKS
WINCHESTER*    FOG       43  43 100 CALM      29.70F VSB 3/4
FRONT ROYAL*   CLOUDY    45  45 100 CALM      29.70R VSB 1/4
LURAY*         FOG       46  46 100 CALM      29.70S VSB 1/2
NEW MARKET*    CLOUDY    45  44  96 CALM      29.71R
STAUNTON*      CLOUDY    45  45  98 CALM      29.72R FOG
WAYNESBORO*    CLOUDY    47  46  96 CALM      29.70R

$$

WVZ021-048>050-054>055-221000-
EASTERN WEST VIRGINIA PANHANDLE

CITY           SKY/WX    TMP DP  RH WIND       PRES   REMARKS
MARTINSBURG    FOG       45  45 100 NE3       29.69F VSB 1/4
PETERSBURG*    CLOUDY    46  45  95 CALM      29.73S FOG

$$

VAZ036>039-050-221000-
CENTRAL FOOTHILLS

CITY           SKY/WX    TMP DP  RH WIND       PRES   REMARKS
CHARLOTTESVILL CLOUDY    50  48  93 N6        29.69F FOG
CULPEPER*      FOG       49  49 100 NE3       29.71S VSB 1/2
ORANGE*        FOG       48  48 100 CALM      29.72S VSB 1/4
GORDONSVILLE*  FOG       48  48 100 NE5       29.70R VSB 3/4
WARRENTON*     FOG       49  47  91 NE3       29.69F VSB 1/2

$$

VAZ055>057-221000-
NORTH AND CENTRAL PIEDMONT

CITY           SKY/WX    TMP DP  RH WIND       PRES   REMARKS
FREDERICKSBRG* CLOUDY    48  48 100 N3        29.69F FOG
STAFFORD*      FOG       47  47 100 N5        29.74F VSB 3/4

$$

NCZ024-NYZ072-PAZ021-071-VAZ022-071-221000-
OTHER REGIONAL OBSERVATIONS

CITY           SKY/WX    TMP DP  RH WIND       PRES   REMARKS
NEW YORK CITY  MOCLDY    43  43 100 CALM      29.74F FOG
PHILADELPHIA   FOG       46  45  96 CALM      29.74S VSB 1/2
PITTSBURGH     CLOUDY    51  51 100 N5        29.66F
ROANOKE        CLOUDY    51  50  96 CALM      29.69F
RICHMOND       CLOUDY    49  49 100 NE5       29.66S FOG
RALEIGH        FOG       53  52  96 VRB3      29.66R VSB 1/8

$$

ANZ530>537-221000-
MARINE OBSERVATIONS

STATION/POSITION TIME  TEMP    WIND        PRES
                       AIR SEA DIR/SP/G
                 (UTC) (F)     (DEG/KT/KT) (MB)
THOMAS PT LIGHT  0900   44 40  360/ 11/ 12   N/A
BALT KEY BRIDGE  0842   44      10/  4/  5 1006.6F
COVE POINT       0842   42     350/ 10/ 12 1006.0S
LEWISETTA        0842   46 44   20/  3/  4 1004.6F
SOLOMONS ISLAND  0842   46 41  330/  5/  6   N/A
PINEY POINT      0848           30/  4/  5   N/A

$$





USA.gov is the U.S. government's official web portal to all federal, state and local government web resources and services.